Wetterdaten: Mittwoch, 18.07.2012
Datum Zeit Temperatur Luftfeuchte Regen Wind Richtung Richtung Taupunkt Windchill Windben
18.07.2012 00:00 14,8 C 71 % 0,0 l/m 0,8 km/h (0 Bft) S-SO 157 9,6 C 14,9 C 0,0 km/h (0 Bft)
18.07.2012 00:05 14,6 C 71 % 0,0 l/m 0,8 km/h (0 Bft) NO 45 9,4 C 14,8 C 0,0 km/h (0 Bft)
18.07.2012 00:10 14,6 C 71 % 0,0 l/m 0,3 km/h (0 Bft) N-NW 337 9,4 C 14,7 C 0,0 km/h (0 Bft)
18.07.2012 00:15 14,6 C 72 % 0,0 l/m 0,0 km/h (0 Bft) O 90 9,6 C 14,6 C 0,0 km/h (0 Bft)
18.07.2012 00:20 14,6 C 72 % 0,0 l/m 0,5 km/h (0 Bft) NO 45 9,6 C 14,6 C 1,8 km/h (1 Bft)
18.07.2012 00:25 14,6 C 72 % 0,0 l/m 0,6 km/h (0 Bft) S-SO 157 9,6 C 14,6 C 0,0 km/h (0 Bft)
18.07.2012 00:30 14,5 C 72 % 0,0 l/m 0,3 km/h (0 Bft) NO 45 9,5 C 14,5 C 0,0 km/h (0 Bft)
18.07.2012 00:35 14,4 C 72 % 0,0 l/m 0,3 km/h (0 Bft) O 90 9,4 C 14,4 C 3,4 km/h (1 Bft)
18.07.2012 00:40 14,3 C 73 % 0,0 l/m 0,3 km/h (0 Bft) NO 45 9,5 C 14,3 C 0,0 km/h (0 Bft)
18.07.2012 00:45 14,2 C 73 % 0,0 l/m 0,5 km/h (0 Bft) O 90 9,4 C 14,2 C 0,0 km/h (0 Bft)
18.07.2012 00:50 14,1 C 73 % 0,0 l/m 0,3 km/h (0 Bft) O-SO 112 9,3 C 14,2 C 0,0 km/h (0 Bft)
18.07.2012 00:55 14,0 C 73 % 0,0 l/m 0,3 km/h (0 Bft) SO 135 9,2 C 14,1 C 0,0 km/h (0 Bft)
18.07.2012 01:00 14,0 C 74 % 0,0 l/m 1,1 km/h (1 Bft) SO 135 9,4 C 14,2 C 2,6 km/h (1 Bft)
18.07.2012 01:05 14,0 C 75 % 0,0 l/m 1,8 km/h (1 Bft) S 180 9,6 C 14,3 C 3,5 km/h (1 Bft)
18.07.2012 01:10 14,0 C 76 % 0,0 l/m 2,4 km/h (1 Bft) O-SO 112 9,8 C 14,3 C 10,3 km/h (2 Bft)
18.07.2012 01:15 14,1 C 75 % 0,0 l/m 3,1 km/h (1 Bft) N 360 9,7 C 14,3 C 3,4 km/h (1 Bft)
18.07.2012 01:20 14,2 C 75 % 0,0 l/m 3,2 km/h (1 Bft) O-SO 112 9,8 C 14,4 C 7,4 km/h (2 Bft)
18.07.2012 01:25 14,2 C 75 % 0,0 l/m 3,4 km/h (1 Bft) SO 135 9,8 C 14,5 C 1,9 km/h (1 Bft)
18.07.2012 01:30 14,2 C 75 % 0,0 l/m 3,2 km/h (1 Bft) O 90 9,8 C 14,5 C 5,5 km/h (1 Bft)
18.07.2012 01:35 14,2 C 75 % 0,0 l/m 3,1 km/h (1 Bft) O 90 9,8 C 14,5 C 4,3 km/h (1 Bft)
18.07.2012 01:40 14,2 C 76 % 0,0 l/m 4,0 km/h (1 Bft) SO 135 10,0 C 14,5 C 3,9 km/h (1 Bft)
18.07.2012 01:45 14,1 C 75 % 0,0 l/m 3,4 km/h (1 Bft) N 360 9,7 C 14,5 C 0,0 km/h (0 Bft)
18.07.2012 01:50 14,1 C 76 % 0,0 l/m 3,1 km/h (1 Bft) O 90 9,9 C 14,4 C 3,9 km/h (1 Bft)
18.07.2012 01:55 14,1 C 76 % 0,0 l/m 3,4 km/h (1 Bft) O-SO 112 9,9 C 14,4 C 3,5 km/h (1 Bft)
18.07.2012 02:00 14,0 C 76 % 0,0 l/m 3,5 km/h (1 Bft) O-SO 112 9,8 C 14,3 C 4,0 km/h (1 Bft)
18.07.2012 02:05 14,0 C 76 % 0,0 l/m 3,1 km/h (1 Bft) N-NO 22 9,8 C 14,3 C 7,9 km/h (2 Bft)
18.07.2012 02:10 13,9 C 76 % 0,0 l/m 3,2 km/h (1 Bft) O-SO 112 9,7 C 14,3 C 5,8 km/h (2 Bft)
18.07.2012 02:15 14,0 C 76 % 0,0 l/m 3,4 km/h (1 Bft) S 180 9,8 C 14,3 C 2,4 km/h (1 Bft)
18.07.2012 02:20 14,1 C 76 % 0,0 l/m 2,6 km/h (1 Bft) SO 135 9,9 C 14,3 C 0,0 km/h (0 Bft)
18.07.2012 02:25 14,2 C 76 % 0,0 l/m 2,7 km/h (1 Bft) NO 45 10,0 C 14,3 C 6,6 km/h (2 Bft)
18.07.2012 02:30 14,2 C 76 % 0,0 l/m 3,5 km/h (1 Bft) N-NW 337 10,0 C 14,4 C 6,1 km/h (2 Bft)
18.07.2012 02:35 14,3 C 76 % 0,0 l/m 4,0 km/h (1 Bft) O-SO 112 10,1 C 14,5 C 5,5 km/h (1 Bft)
18.07.2012 02:40 14,3 C 76 % 0,0 l/m 3,9 km/h (1 Bft) O-SO 112 10,1 C 14,5 C 7,6 km/h (2 Bft)
18.07.2012 02:45 14,3 C 76 % 0,0 l/m 4,3 km/h (1 Bft) SO 135 10,1 C 14,5 C 7,1 km/h (2 Bft)
18.07.2012 02:50 14,4 C 76 % 0,0 l/m 4,8 km/h (1 Bft) O 90 10,2 C 14,6 C 5,3 km/h (1 Bft)
18.07.2012 02:55 14,4 C 76 % 0,0 l/m 5,0 km/h (1 Bft) SO 135 10,2 C 14,7 C 4,0 km/h (1 Bft)
18.07.2012 03:00 14,4 C 76 % 0,0 l/m 4,7 km/h (1 Bft) O-SO 112 10,2 C 14,7 C 9,2 km/h (2 Bft)
18.07.2012 03:05 14,4 C 76 % 0,0 l/m 4,8 km/h (1 Bft) SO 135 10,2 C 14,7 C 8,7 km/h (2 Bft)
18.07.2012 03:10 14,3 C 76 % 0,0 l/m 5,1 km/h (1 Bft) O-SO 112 10,1 C 14,7 C 4,3 km/h (1 Bft)
18.07.2012 03:15 14,3 C 76 % 0,0 l/m 4,3 km/h (1 Bft) O 90 10,1 C 14,7 C 4,7 km/h (1 Bft)
18.07.2012 03:20 14,4 C 76 % 0,0 l/m 3,9 km/h (1 Bft) O-SO 112 10,2 C 14,7 C 7,6 km/h (2 Bft)
18.07.2012 03:25 14,5 C 75 % 0,0 l/m 4,5 km/h (1 Bft) O-SO 112 10,1 C 14,7 C 7,4 km/h (2 Bft)
18.07.2012 03:30 14,6 C 75 % 0,0 l/m 5,5 km/h (1 Bft) O-SO 112 10,2 C 14,8 C 11,9 km/h (2 Bft)
18.07.2012 03:35 14,6 C 75 % 0,0 l/m 5,8 km/h (2 Bft) O 90 10,2 C 14,8 C 7,9 km/h (2 Bft)
18.07.2012 03:40 14,7 C 75 % 0,0 l/m 6,3 km/h (2 Bft) O-SO 112 10,3 C 14,8 C 13,5 km/h (3 Bft)
18.07.2012 03:45 14,6 C 75 % 0,0 l/m 5,3 km/h (1 Bft) SO 135 10,2 C 14,8 C 4,8 km/h (1 Bft)
18.07.2012 03:50 14,6 C 75 % 0,0 l/m 5,5 km/h (1 Bft) SO 135 10,2 C 14,8 C 6,8 km/h (2 Bft)
18.07.2012 03:55 14,6 C 74 % 0,0 l/m 5,8 km/h (2 Bft) SO 135 10,0 C 14,8 C 6,4 km/h (2 Bft)
18.07.2012 04:00 14,5 C 75 % 0,0 l/m 5,3 km/h (1 Bft) O-SO 112 10,1 C 14,8 C 6,4 km/h (2 Bft)
18.07.2012 04:05 14,3 C 75 % 0,0 l/m 4,8 km/h (1 Bft) SO 135 9,9 C 14,7 C 3,7 km/h (1 Bft)
18.07.2012 04:10 14,0 C 76 % 0,0 l/m 4,5 km/h (1 Bft) SO 135 9,8 C 14,5 C 4,5 km/h (1 Bft)
18.07.2012 04:15 13,8 C 76 % 0,0 l/m 4,0 km/h (1 Bft) SO 135 9,6 C 14,3 C 5,0 km/h (1 Bft)
18.07.2012 04:20 13,7 C 77 % 0,0 l/m 4,7 km/h (1 Bft) SO 135 9,7 C 14,1 C 6,0 km/h (2 Bft)
18.07.2012 04:25 13,7 C 77 % 0,0 l/m 5,1 km/h (1 Bft) SO 135 9,7 C 14,1 C 7,9 km/h (2 Bft)
18.07.2012 04:30 14,1 C 77 % 0,0 l/m 6,4 km/h (2 Bft) SO 135 10,1 C 14,3 C 8,7 km/h (2 Bft)
18.07.2012 04:35 14,2 C 76 % 0,0 l/m 6,6 km/h (2 Bft) O-SO 112 10,0 C 14,4 C 12,9 km/h (3 Bft)
18.07.2012 04:40 14,3 C 76 % 0,0 l/m 6,1 km/h (2 Bft) SO 135 10,1 C 14,6 C 6,8 km/h (2 Bft)
18.07.2012 04:45 14,3 C 76 % 0,0 l/m 5,8 km/h (2 Bft) N-NO 22 10,1 C 14,6 C 8,4 km/h (2 Bft)
18.07.2012 04:50 14,3 C 76 % 0,0 l/m 5,5 km/h (1 Bft) S 180 10,1 C 14,7 C 6,3 km/h (2 Bft)
18.07.2012 04:55 14,3 C 76 % 0,0 l/m 5,0 km/h (1 Bft) O-SO 112 10,1 C 14,7 C 5,6 km/h (1 Bft)
18.07.2012 05:00 14,4 C 75 % 0,0 l/m 5,0 km/h (1 Bft) S 180 10,0 C 14,8 C 5,0 km/h (1 Bft)
18.07.2012 05:05 14,4 C 75 % 0,0 l/m 5,1 km/h (1 Bft) O-SO 112 10,0 C 14,8 C 5,0 km/h (1 Bft)
18.07.2012 05:10 14,5 C 74 % 0,0 l/m 5,0 km/h (1 Bft) O-SO 112 9,9 C 14,8 C 9,3 km/h (2 Bft)
18.07.2012 05:15 14,6 C 74 % 0,0 l/m 5,3 km/h (1 Bft) NO 45 10,0 C 14,9 C 3,5 km/h (1 Bft)
18.07.2012 05:20 14,5 C 74 % 0,0 l/m 4,3 km/h (1 Bft) O-SO 112 9,9 C 14,8 C 5,5 km/h (1 Bft)
18.07.2012 05:25 14,5 C 74 % 0,0 l/m 3,1 km/h (1 Bft) S 180 9,9 C 14,8 C 2,9 km/h (1 Bft)
18.07.2012 05:30 14,4 C 74 % 0,0 l/m 3,9 km/h (1 Bft) O-SO 112 9,8 C 14,8 C 3,9 km/h (1 Bft)
18.07.2012 05:35 14,4 C 74 % 0,0 l/m 3,5 km/h (1 Bft) O-SO 112 9,8 C 14,8 C 1,9 km/h (1 Bft)
18.07.2012 05:40 14,3 C 74 % 0,0 l/m 2,4 km/h (1 Bft) S-SO 157 9,7 C 14,8 C 3,4 km/h (1 Bft)
18.07.2012 05:45 14,3 C 74 % 0,0 l/m 1,9 km/h (1 Bft) SO 135 9,7 C 14,7 C 4,3 km/h (1 Bft)
18.07.2012 05:50 14,3 C 74 % 0,0 l/m 2,3 km/h (1 Bft) O-SO 112 9,7 C 14,6 C 2,3 km/h (1 Bft)
18.07.2012 05:55 14,2 C 74 % 0,0 l/m 2,3 km/h (1 Bft) SO 135 9,6 C 14,5 C 2,4 km/h (1 Bft)
18.07.2012 06:00 13,7 C 75 % 0,0 l/m 3,7 km/h (1 Bft) O-SO 112 9,3 C 14,2 C 7,9 km/h (2 Bft)
18.07.2012 06:05 13,5 C 75 % 0,0 l/m 5,0 km/h (1 Bft) O-SO 112 9,2 C 14,2 C 5,8 km/h (2 Bft)
18.07.2012 06:10 13,2 C 75 % 0,0 l/m 3,5 km/h (1 Bft) W 270 8,9 C 13,9 C 0,0 km/h (0 Bft)
18.07.2012 06:15 13,2 C 75 % 0,0 l/m 1,8 km/h (1 Bft) O-SO 112 8,9 C 13,7 C 2,3 km/h (1 Bft)
18.07.2012 06:20 13,0 C 76 % 0,0 l/m 1,1 km/h (1 Bft) NO 45 8,9 C 13,3 C 1,8 km/h (1 Bft)
18.07.2012 06:25 12,9 C 76 % 0,0 l/m 1,0 km/h (0 Bft) O-SO 112 8,8 C 13,2 C 0,0 km/h (0 Bft)
18.07.2012 06:30 13,6 C 75 % 0,0 l/m 0,8 km/h (0 Bft) S-SO 157 9,3 C 14,0 C 0,0 km/h (0 Bft)
18.07.2012 06:35 13,5 C 75 % 0,0 l/m 1,0 km/h (0 Bft) O 90 9,2 C 14,4 C 1,6 km/h (1 Bft)
18.07.2012 06:40 14,0 C 74 % 0,0 l/m 1,1 km/h (1 Bft) N-NO 22 9,4 C 15,6 C 0,0 km/h (0 Bft)
18.07.2012 06:45 13,9 C 75 % 0,0 l/m 1,3 km/h (1 Bft) O-SO 112 9,5 C 16,9 C 2,1 km/h (1 Bft)
18.07.2012 06:50 16,3 C 70 % 0,0 l/m 1,8 km/h (1 Bft) O 90 10,8 C 18,2 C 5,5 km/h (1 Bft)
18.07.2012 06:55 17,6 C 66 % 0,0 l/m 2,1 km/h (1 Bft) O-SO 112 11,2 C 18,9 C 2,6 km/h (1 Bft)
18.07.2012 07:00 18,4 C 62 % 0,0 l/m 2,3 km/h (1 Bft) SO 135 11,0 C 19,8 C 1,8 km/h (1 Bft)
18.07.2012 07:05 19,5 C 62 % 0,0 l/m 1,8 km/h (1 Bft) SO 135 12,0 C 20,3 C 0,0 km/h (0 Bft)
18.07.2012 07:10 19,7 C 58 % 0,0 l/m 1,6 km/h (1 Bft) NO 45 11,2 C 21,0 C 0,0 km/h (0 Bft)
18.07.2012 07:15 19,7 C 58 % 0,0 l/m 1,3 km/h (1 Bft) O-SO 112 11,2 C 21,4 C 2,9 km/h (1 Bft)
18.07.2012 07:20 20,7 C 57 % 0,0 l/m 1,6 km/h (1 Bft) O-SO 112 11,9 C 22,1 C 5,5 km/h (1 Bft)
18.07.2012 07:25 20,9 C 53 % 0,0 l/m 2,6 km/h (1 Bft) NO 45 11,0 C 22,0 C 3,1 km/h (1 Bft)
18.07.2012 07:30 21,5 C 54 % 0,0 l/m 3,1 km/h (1 Bft) S-SW 202 11,8 C 22,6 C 6,9 km/h (2 Bft)
18.07.2012 07:35 22,0 C 53 % 0,0 l/m 3,2 km/h (1 Bft) O-SO 112 12,0 C 22,5 C 9,0 km/h (2 Bft)
18.07.2012 07:40 22,4 C 52 % 0,0 l/m 4,2 km/h (1 Bft) S-SW 202 12,1 C 22,3 C 3,7 km/h (1 Bft)
18.07.2012 07:45 22,4 C 51 % 0,0 l/m 4,3 km/h (1 Bft) SO 135 11,8 C 22,3 C 4,2 km/h (1 Bft)
18.07.2012 07:50 22,6 C 51 % 0,0 l/m 3,4 km/h (1 Bft) O-SO 112 11,9 C 22,8 C 5,0 km/h (1 Bft)
18.07.2012 07:55 22,7 C 48 % 0,0 l/m 3,1 km/h (1 Bft) O-SO 112 11,1 C 22,9 C 5,3 km/h (1 Bft)
18.07.2012 08:00 23,1 C 47 % 0,0 l/m 4,2 km/h (1 Bft) O-SO 112 11,2 C 23,0 C 7,7 km/h (2 Bft)
18.07.2012 08:05 23,7 C 48 % 0,0 l/m 3,7 km/h (1 Bft) O 90 12,0 C 23,1 C 2,4 km/h (1 Bft)
18.07.2012 08:10 23,8 C 48 % 0,0 l/m 2,7 km/h (1 Bft) SO 135 12,1 C 23,9 C 5,1 km/h (1 Bft)
18.07.2012 08:15 23,7 C 46 % 0,0 l/m 3,1 km/h (1 Bft) S 180 11,4 C 24,1 C 6,9 km/h (2 Bft)
18.07.2012 08:20 24,2 C 45 % 0,0 l/m 4,2 km/h (1 Bft) O-SO 112 11,5 C 23,8 C 4,8 km/h (1 Bft)
18.07.2012 08:25 24,5 C 45 % 0,0 l/m 4,5 km/h (1 Bft) N-NW 337 11,8 C 23,9 C 5,3 km/h (1 Bft)
18.07.2012 08:30 24,7 C 43 % 0,0 l/m 4,3 km/h (1 Bft) O-SO 112 11,3 C 24,3 C 9,7 km/h (2 Bft)
18.07.2012 08:35 25,0 C 45 % 0,0 l/m 4,8 km/h (1 Bft) O-SO 112 12,2 C 24,0 C 8,4 km/h (2 Bft)
18.07.2012 08:40 24,8 C 43 % 0,0 l/m 6,1 km/h (2 Bft) SO 135 11,8 C 24,2 C 11,6 km/h (2 Bft)
18.07.2012 08:45 24,3 C 42 % 0,0 l/m 6,9 km/h (2 Bft) O-SO 112 11,5 C 24,2 C 8,7 km/h (2 Bft)
18.07.2012 08:50 23,8 C 42 % 0,0 l/m 7,6 km/h (2 Bft) SO 135 11,4 C 23,8 C 14,2 km/h (3 Bft)
18.07.2012 08:55 23,9 C 43 % 0,0 l/m 6,6 km/h (2 Bft) O-SO 112 12,3 C 24,6 C 5,5 km/h (1 Bft)
18.07.2012 09:00 23,5 C 43 % 0,0 l/m 5,3 km/h (1 Bft) S 180 12,3 C 25,0 C 14,5 km/h (3 Bft)
18.07.2012 09:05 23,2 C 46 % 0,0 l/m 5,0 km/h (1 Bft) O-SO 112 11,1 C 24,4 C 3,1 km/h (1 Bft)
18.07.2012 09:10 23,0 C 48 % 0,0 l/m 4,5 km/h (1 Bft) SO 135 12,1 C 23,2 C 3,5 km/h (1 Bft)
18.07.2012 09:15 23,1 C 44 % 0,0 l/m 4,7 km/h (1 Bft) S-SO 157 11,7 C 23,5 C 5,8 km/h (2 Bft)
18.07.2012 09:20 23,1 C 43 % 0,0 l/m 6,1 km/h (2 Bft) S-SO 157 11,6 C 23,8 C 8,0 km/h (2 Bft)
18.07.2012 09:25 23,1 C 45 % 0,0 l/m 6,6 km/h (2 Bft) SO 135 12,3 C 23,9 C 8,5 km/h (2 Bft)
18.07.2012 09:30 23,1 C 44 % 0,0 l/m 5,5 km/h (1 Bft) S 180 12,4 C 24,2 C 4,0 km/h (1 Bft)
18.07.2012 09:35 23,2 C 43 % 0,0 l/m 4,8 km/h (1 Bft) O-SO 112 11,7 C 24,6 C 8,9 km/h (2 Bft)
18.07.2012 09:40 23,4 C 42 % 0,0 l/m 4,3 km/h (1 Bft) S 180 12,0 C 24,7 C 14,6 km/h (3 Bft)
18.07.2012 09:45 23,9 C 42 % 0,0 l/m 4,5 km/h (1 Bft) SO 135 11,4 C 25,5 C 10,1 km/h (2 Bft)
18.07.2012 09:50 24,1 C 44 % 0,0 l/m 5,0 km/h (1 Bft) O-SO 112 12,5 C 25,6 C 6,1 km/h (2 Bft)
18.07.2012 09:55 24,2 C 44 % 0,0 l/m 5,3 km/h (1 Bft) S 180 12,0 C 25,6 C 10,0 km/h (2 Bft)
18.07.2012 10:00 24,3 C 45 % 0,0 l/m 4,5 km/h (1 Bft) SO 135 12,1 C 25,6 C 7,7 km/h (2 Bft)
18.07.2012 10:05 24,3 C 43 % 0,0 l/m 4,3 km/h (1 Bft) S-SO 157 12,2 C 25,7 C 6,4 km/h (2 Bft)
18.07.2012 10:10 24,2 C 46 % 0,0 l/m 4,0 km/h (1 Bft) W-SW 247 12,5 C 25,7 C 3,4 km/h (1 Bft)
18.07.2012 10:15 24,3 C 44 % 0,0 l/m 3,9 km/h (1 Bft) W-SW 247 12,2 C 25,8 C 2,3 km/h (1 Bft)
18.07.2012 10:20 24,5 C 45 % 0,0 l/m 2,6 km/h (1 Bft) NO 45 12,1 C 26,7 C 2,7 km/h (1 Bft)
18.07.2012 10:25 24,7 C 44 % 0,0 l/m 1,8 km/h (1 Bft) W-SW 247 12,3 C 27,4 C 3,1 km/h (1 Bft)
18.07.2012 10:30 24,7 C 44 % 0,0 l/m 1,9 km/h (1 Bft) S 180 12,2 C 27,3 C 2,3 km/h (1 Bft)
18.07.2012 10:35 25,0 C 44 % 0,0 l/m 2,7 km/h (1 Bft) S 180 12,1 C 27,4 C 3,1 km/h (1 Bft)
18.07.2012 10:40 24,0 C 46 % 0,0 l/m 2,3 km/h (1 Bft) N-NW 337 11,7 C 27,6 C 2,9 km/h (1 Bft)
18.07.2012 10:45 24,5 C 47 % 0,0 l/m 1,8 km/h (1 Bft) S 180 12,4 C 27,8 C 2,9 km/h (1 Bft)
18.07.2012 10:50 23,9 C 47 % 0,0 l/m 2,3 km/h (1 Bft) W-NW 292 11,9 C 27,3 C 4,8 km/h (1 Bft)
18.07.2012 10:55 23,4 C 47 % 0,0 l/m 2,7 km/h (1 Bft) S-SW 202 11,4 C 26,1 C 4,3 km/h (1 Bft)
18.07.2012 11:00 25,0 C 45 % 0,0 l/m 2,6 km/h (1 Bft) NW 315 12,2 C 26,7 C 0,0 km/h (0 Bft)
18.07.2012 11:05 24,3 C 46 % 0,0 l/m 1,9 km/h (1 Bft) W-SW 247 11,9 C 26,9 C 2,3 km/h (1 Bft)
18.07.2012 11:10 24,1 C 48 % 0,0 l/m 1,9 km/h (1 Bft) S 180 12,4 C 26,6 C 6,0 km/h (2 Bft)
18.07.2012 11:15 24,1 C 45 % 0,0 l/m 2,7 km/h (1 Bft) N-NO 22 11,4 C 26,5 C 0,0 km/h (0 Bft)
18.07.2012 11:20 23,4 C 47 % 0,0 l/m 2,6 km/h (1 Bft) N 360 11,4 C 26,4 C 3,5 km/h (1 Bft)
18.07.2012 11:25 23,8 C 47 % 0,0 l/m 1,8 km/h (1 Bft) W 270 11,8 C 26,8 C 5,6 km/h (1 Bft)
18.07.2012 11:30 24,7 C 45 % 0,0 l/m 2,3 km/h (1 Bft) S-SW 202 12,0 C 27,1 C 2,6 km/h (1 Bft)
18.07.2012 11:35 24,0 C 47 % 0,0 l/m 3,1 km/h (1 Bft) S 180 12,0 C 27,2 C 3,7 km/h (1 Bft)
18.07.2012 11:40 24,4 C 45 % 0,0 l/m 3,4 km/h (1 Bft) N 360 11,7 C 27,1 C 1,9 km/h (1 Bft)
18.07.2012 11:45 24,5 C 46 % 0,0 l/m 2,6 km/h (1 Bft) NO 45 12,1 C 27,2 C 4,5 km/h (1 Bft)
18.07.2012 11:50 25,6 C 45 % 0,0 l/m 2,3 km/h (1 Bft) S-SO 157 12,8 C 27,7 C 7,2 km/h (2 Bft)
18.07.2012 11:55 25,3 C 42 % 0,0 l/m 3,5 km/h (1 Bft) W 270 11,5 C 27,4 C 4,8 km/h (1 Bft)
18.07.2012 12:00 25,1 C 42 % 0,0 l/m 3,9 km/h (1 Bft) N 360 11,3 C 27,2 C 0,0 km/h (0 Bft)
18.07.2012 12:05 25,1 C 44 % 0,0 l/m 2,4 km/h (1 Bft) O-NO 67 12,0 C 27,3 C 0,0 km/h (0 Bft)
18.07.2012 12:10 26,2 C 41 % 0,0 l/m 1,8 km/h (1 Bft) S-SO 157 11,9 C 28,1 C 3,9 km/h (1 Bft)
18.07.2012 12:15 26,1 C 41 % 0,0 l/m 3,4 km/h (1 Bft) S-SO 157 11,8 C 27,9 C 5,3 km/h (1 Bft)
18.07.2012 12:20 26,5 C 41 % 0,0 l/m 4,3 km/h (1 Bft) S-SW 202 12,2 C 27,4 C 4,2 km/h (1 Bft)
18.07.2012 12:25 26,1 C 40 % 0,0 l/m 4,3 km/h (1 Bft) S-SW 202 11,4 C 27,4 C 8,4 km/h (2 Bft)
18.07.2012 12:30 25,5 C 44 % 0,0 l/m 5,0 km/h (1 Bft) SO 135 12,3 C 26,9 C 7,9 km/h (2 Bft)
18.07.2012 12:35 25,7 C 45 % 0,0 l/m 5,5 km/h (1 Bft) S 180 12,9 C 26,7 C 7,4 km/h (2 Bft)
18.07.2012 12:40 26,4 C 42 % 0,0 l/m 5,3 km/h (1 Bft) S-SO 157 12,4 C 26,6 C 1,9 km/h (1 Bft)
18.07.2012 12:45 26,8 C 43 % 0,0 l/m 5,3 km/h (1 Bft) S 180 13,2 C 26,9 C 6,1 km/h (2 Bft)
18.07.2012 12:50 26,6 C 42 % 0,0 l/m 5,3 km/h (1 Bft) S 180 12,6 C 26,7 C 7,6 km/h (2 Bft)
18.07.2012 12:55 26,4 C 42 % 0,0 l/m 5,5 km/h (1 Bft) O-SO 112 12,4 C 26,7 C 5,1 km/h (1 Bft)
18.07.2012 13:00 26,3 C 42 % 0,0 l/m 5,1 km/h (1 Bft) S 180 12,3 C 27,2 C 6,1 km/h (2 Bft)
18.07.2012 13:05 26,3 C 41 % 0,0 l/m 5,8 km/h (2 Bft) S-SO 157 12,0 C 27,0 C 4,8 km/h (1 Bft)
18.07.2012 13:10 26,4 C 41 % 0,0 l/m 6,1 km/h (2 Bft) SO 135 12,1 C 27,1 C 13,5 km/h (3 Bft)
18.07.2012 13:15 26,1 C 40 % 0,0 l/m 6,8 km/h (2 Bft) S 180 11,4 C 26,6 C 11,9 km/h (2 Bft)
18.07.2012 13:20 26,1 C 44 % 0,0 l/m 6,9 km/h (2 Bft) O 90 12,9 C 26,7 C 5,3 km/h (1 Bft)
18.07.2012 13:25 26,5 C 41 % 0,0 l/m 5,0 km/h (1 Bft) S-SO 157 12,2 C 27,2 C 8,7 km/h (2 Bft)
18.07.2012 13:30 26,6 C 41 % 0,0 l/m 5,3 km/h (1 Bft) SO 135 12,2 C 27,4 C 5,0 km/h (1 Bft)
18.07.2012 13:35 26,8 C 42 % 0,0 l/m 6,1 km/h (2 Bft) S 180 12,8 C 27,4 C 12,9 km/h (3 Bft)
18.07.2012 13:40 26,8 C 44 % 0,0 l/m 5,6 km/h (1 Bft) S 180 13,5 C 27,2 C 3,1 km/h (1 Bft)
18.07.2012 13:45 26,8 C 40 % 0,0 l/m 6,0 km/h (2 Bft) S 180 12,1 C 27,3 C 8,0 km/h (2 Bft)
18.07.2012 13:50 26,6 C 41 % 0,0 l/m 6,3 km/h (2 Bft) S 180 12,2 C 27,2 C 7,7 km/h (2 Bft)
18.07.2012 13:55 26,7 C 41 % 0,0 l/m 7,4 km/h (2 Bft) S 180 12,3 C 27,2 C 11,4 km/h (2 Bft)
18.07.2012 14:00 27,0 C 40 % 0,0 l/m 7,2 km/h (2 Bft) O-SO 112 12,2 C 27,3 C 9,5 km/h (2 Bft)
18.07.2012 14:05 27,2 C 40 % 0,0 l/m 7,2 km/h (2 Bft) O-SO 112 12,4 C 27,5 C 13,5 km/h (3 Bft)
18.07.2012 14:10 27,0 C 40 % 0,0 l/m 7,9 km/h (2 Bft) SO 135 12,2 C 27,2 C 18,5 km/h (3 Bft)
18.07.2012 14:15 26,8 C 39 % 0,0 l/m 8,0 km/h (2 Bft) O-SO 112 11,7 C 27,4 C 14,3 km/h (3 Bft)
18.07.2012 14:20 26,8 C 40 % 0,0 l/m 8,5 km/h (2 Bft) O-SO 112 12,1 C 26,9 C 16,9 km/h (3 Bft)
18.07.2012 14:25 27,0 C 39 % 0,0 l/m 9,0 km/h (2 Bft) O-SO 112 11,8 C 27,0 C 14,3 km/h (3 Bft)
18.07.2012 14:30 27,4 C 39 % 0,0 l/m 7,1 km/h (2 Bft) S 180 12,2 C 27,6 C 7,9 km/h (2 Bft)
18.07.2012 14:35 27,5 C 36 % 0,0 l/m 7,4 km/h (2 Bft) S 180 11,1 C 27,8 C 8,7 km/h (2 Bft)
18.07.2012 14:40 27,6 C 37 % 0,0 l/m 7,7 km/h (2 Bft) S-SO 157 11,6 C 27,9 C 24,5 km/h (4 Bft)
18.07.2012 14:45 27,3 C 36 % 0,0 l/m 9,2 km/h (2 Bft) O-SO 112 10,9 C 27,6 C 13,0 km/h (3 Bft)
18.07.2012 14:50 27,4 C 36 % 0,0 l/m 8,9 km/h (2 Bft) O-SO 112 11,0 C 27,7 C 9,2 km/h (2 Bft)
18.07.2012 14:55 27,4 C 35 % 0,0 l/m 7,2 km/h (2 Bft) S-SO 157 10,6 C 28,3 C 5,8 km/h (2 Bft)
18.07.2012 15:00 27,3 C 36 % 0,0 l/m 7,6 km/h (2 Bft) W 270 10,9 C 28,2 C 10,3 km/h (2 Bft)
18.07.2012 15:05 27,7 C 37 % 0,0 l/m 7,9 km/h (2 Bft) S 180 11,7 C 28,2 C 7,1 km/h (2 Bft)
18.07.2012 15:10 27,8 C 36 % 0,0 l/m 7,6 km/h (2 Bft) S-SO 157 11,3 C 28,3 C 9,3 km/h (2 Bft)
18.07.2012 15:15 27,7 C 36 % 0,0 l/m 7,2 km/h (2 Bft) S 180 11,3 C 28,5 C 14,0 km/h (3 Bft)
18.07.2012 15:20 28,2 C 36 % 0,0 l/m 7,1 km/h (2 Bft) NO 45 11,7 C 28,8 C 10,9 km/h (2 Bft)
18.07.2012 15:25 28,0 C 35 % 0,0 l/m 8,0 km/h (2 Bft) O-SO 112 11,1 C 28,8 C 10,9 km/h (2 Bft)
18.07.2012 15:30 27,8 C 35 % 0,0 l/m 9,0 km/h (2 Bft) S 180 10,9 C 28,6 C 8,0 km/h (2 Bft)
18.07.2012 15:35 27,5 C 34 % 0,0 l/m 10,0 km/h (2 Bft) SO 135 10,2 C 28,1 C 21,1 km/h (4 Bft)
18.07.2012 15:40 27,7 C 36 % 0,0 l/m 9,2 km/h (2 Bft) SO 135 11,3 C 28,2 C 10,6 km/h (2 Bft)
18.07.2012 15:45 27,2 C 34 % 0,0 l/m 10,3 km/h (2 Bft) S 180 10,0 C 27,9 C 9,3 km/h (2 Bft)
18.07.2012 15:50 26,9 C 36 % 0,0 l/m 11,6 km/h (2 Bft) O 90 10,6 C 27,1 C 25,1 km/h (4 Bft)
18.07.2012 15:55 27,1 C 36 % 0,0 l/m 9,8 km/h (2 Bft) O 90 10,7 C 27,4 C 6,1 km/h (2 Bft)
18.07.2012 16:00 27,2 C 35 % 0,0 l/m 9,7 km/h (2 Bft) S-SO 157 10,4 C 27,6 C 8,9 km/h (2 Bft)
18.07.2012 16:05 27,0 C 36 % 0,0 l/m 11,1 km/h (2 Bft) O 90 10,6 C 27,2 C 28,3 km/h (4 Bft)
18.07.2012 16:10 26,8 C 34 % 0,0 l/m 12,1 km/h (2 Bft) S 180 9,6 C 27,0 C 14,0 km/h (3 Bft)
18.07.2012 16:15 26,7 C 36 % 0,0 l/m 11,6 km/h (2 Bft) SO 135 10,4 C 27,1 C 5,3 km/h (1 Bft)
18.07.2012 16:20 26,9 C 34 % 0,0 l/m 10,3 km/h (2 Bft) S-SO 157 9,7 C 27,6 C 29,1 km/h (5 Bft)
18.07.2012 16:25 26,9 C 36 % 0,0 l/m 10,6 km/h (2 Bft) S 180 10,6 C 27,6 C 20,9 km/h (4 Bft)
18.07.2012 16:30 26,2 C 35 % 0,0 l/m 12,7 km/h (3 Bft) S 180 9,5 C 26,9 C 7,7 km/h (2 Bft)
18.07.2012 16:35 25,8 C 35 % 0,0 l/m 13,2 km/h (3 Bft) S 180 9,2 C 26,5 C 11,1 km/h (2 Bft)
18.07.2012 16:40 25,7 C 36 % 0,0 l/m 10,5 km/h (2 Bft) O-SO 112 9,5 C 27,0 C 10,3 km/h (2 Bft)
18.07.2012 16:45 25,5 C 37 % 0,0 l/m 10,5 km/h (2 Bft) S-SO 157 9,7 C 27,0 C 8,9 km/h (2 Bft)
18.07.2012 16:50 25,2 C 39 % 0,0 l/m 10,9 km/h (2 Bft) S-SO 157 10,2 C 26,7 C 11,1 km/h (2 Bft)
18.07.2012 16:55 25,1 C 40 % 0,0 l/m 10,5 km/h (2 Bft) SO 135 10,5 C 26,7 C 9,5 km/h (2 Bft)
18.07.2012 17:00 24,9 C 40 % 0,0 l/m 9,5 km/h (2 Bft) SO 135 10,4 C 27,1 C 9,7 km/h (2 Bft)
18.07.2012 17:05 25,0 C 43 % 0,0 l/m 8,5 km/h (2 Bft) O-SO 112 11,5 C 27,4 C 11,9 km/h (2 Bft)
18.07.2012 17:10 24,8 C 44 % 0,0 l/m 8,4 km/h (2 Bft) S 180 11,7 C 27,7 C 8,9 km/h (2 Bft)
18.07.2012 17:15 24,8 C 44 % 0,0 l/m 7,9 km/h (2 Bft) O-SO 112 11,7 C 27,9 C 8,2 km/h (2 Bft)
18.07.2012 17:20 24,6 C 46 % 0,0 l/m 7,6 km/h (2 Bft) S 180 12,2 C 27,9 C 9,0 km/h (2 Bft)
18.07.2012 17:25 24,6 C 44 % 0,0 l/m 7,9 km/h (2 Bft) O-SO 112 11,5 C 27,9 C 16,3 km/h (3 Bft)
18.07.2012 17:30 24,4 C 44 % 0,0 l/m 9,5 km/h (2 Bft) SO 135 11,3 C 27,3 C 7,6 km/h (2 Bft)
18.07.2012 17:35 24,4 C 46 % 0,0 l/m 9,7 km/h (2 Bft) S-SW 202 12,0 C 27,3 C 8,2 km/h (2 Bft)
18.07.2012 17:40 24,4 C 45 % 0,0 l/m 9,3 km/h (2 Bft) S-SO 157 11,7 C 27,4 C 15,8 km/h (3 Bft)
18.07.2012 17:45 24,4 C 45 % 0,0 l/m 9,3 km/h (2 Bft) S-SW 202 11,7 C 27,4 C 13,2 km/h (3 Bft)
18.07.2012 17:50 24,4 C 46 % 0,0 l/m 7,6 km/h (2 Bft) S 180 12,0 C 27,8 C 7,2 km/h (2 Bft)
18.07.2012 17:55 24,3 C 46 % 0,0 l/m 7,1 km/h (2 Bft) S-SO 157 11,9 C 27,9 C 7,9 km/h (2 Bft)
18.07.2012 18:00 24,4 C 47 % 0,0 l/m 7,2 km/h (2 Bft) SO 135 12,3 C 28,2 C 7,4 km/h (2 Bft)
18.07.2012 18:05 24,3 C 46 % 0,0 l/m 7,4 km/h (2 Bft) S 180 11,9 C 27,9 C 10,1 km/h (2 Bft)
18.07.2012 18:10 24,2 C 48 % 0,0 l/m 8,2 km/h (2 Bft) S-SO 157 12,5 C 27,5 C 9,8 km/h (2 Bft)
18.07.2012 18:15 24,2 C 47 % 0,0 l/m 7,1 km/h (2 Bft) SO 135 12,2 C 27,9 C 12,9 km/h (3 Bft)
18.07.2012 18:20 24,1 C 48 % 0,0 l/m 7,6 km/h (2 Bft) SO 135 12,4 C 27,7 C 9,3 km/h (2 Bft)
18.07.2012 18:25 24,0 C 48 % 0,0 l/m 8,9 km/h (2 Bft) O-SO 112 12,3 C 27,3 C 8,9 km/h (2 Bft)
18.07.2012 18:30 23,9 C 48 % 0,0 l/m 9,2 km/h (2 Bft) O 90 12,2 C 26,9 C 11,6 km/h (2 Bft)
18.07.2012 18:35 24,0 C 48 % 0,0 l/m 7,6 km/h (2 Bft) SO 135 12,3 C 27,3 C 8,0 km/h (2 Bft)
18.07.2012 18:40 24,1 C 46 % 0,0 l/m 7,1 km/h (2 Bft) O-NO 67 11,7 C 27,4 C 7,1 km/h (2 Bft)
18.07.2012 18:45 24,1 C 45 % 0,0 l/m 8,4 km/h (2 Bft) SO 135 11,4 C 26,9 C 15,3 km/h (3 Bft)
18.07.2012 18:50 23,9 C 48 % 0,0 l/m 8,4 km/h (2 Bft) O-SO 112 12,2 C 26,7 C 10,0 km/h (2 Bft)
18.07.2012 18:55 23,9 C 46 % 0,0 l/m 7,7 km/h (2 Bft) O-SO 112 11,6 C 26,9 C 8,9 km/h (2 Bft)
18.07.2012 19:00 23,8 C 47 % 0,0 l/m 7,1 km/h (2 Bft) O-SO 112 11,8 C 27,1 C 10,3 km/h (2 Bft)
18.07.2012 19:05 23,6 C 49 % 0,0 l/m 6,4 km/h (2 Bft) S-SO 157 12,2 C 27,1 C 10,9 km/h (2 Bft)
18.07.2012 19:10 23,4 C 48 % 0,0 l/m 8,0 km/h (2 Bft) O-SO 112 11,8 C 26,6 C 10,9 km/h (2 Bft)
18.07.2012 19:15 23,4 C 47 % 0,0 l/m 8,9 km/h (2 Bft) SO 135 11,4 C 26,2 C 17,5 km/h (3 Bft)
18.07.2012 19:20 23,1 C 48 % 0,0 l/m 8,2 km/h (2 Bft) S-SO 157 11,5 C 25,9 C 4,8 km/h (1 Bft)
18.07.2012 19:25 22,9 C 51 % 0,0 l/m 6,8 km/h (2 Bft) O-NO 67 12,2 C 26,2 C 5,1 km/h (1 Bft)
18.07.2012 19:30 22,7 C 52 % 0,0 l/m 4,0 km/h (1 Bft) NO 45 12,3 C 26,4 C 3,5 km/h (1 Bft)
18.07.2012 19:35 22,8 C 52 % 0,0 l/m 4,0 km/h (1 Bft) SO 135 12,4 C 26,7 C 6,1 km/h (2 Bft)
18.07.2012 19:40 22,7 C 52 % 0,0 l/m 3,9 km/h (1 Bft) O 90 12,3 C 26,5 C 0,0 km/h (0 Bft)
18.07.2012 19:45 22,6 C 52 % 0,0 l/m 3,7 km/h (1 Bft) O-SO 112 12,2 C 26,6 C 5,3 km/h (1 Bft)
18.07.2012 19:50 22,3 C 53 % 0,0 l/m 3,5 km/h (1 Bft) NO 45 12,2 C 26,1 C 2,6 km/h (1 Bft)
18.07.2012 19:55 22,2 C 53 % 0,0 l/m 3,2 km/h (1 Bft) O-SO 112 12,2 C 26,0 C 3,9 km/h (1 Bft)
18.07.2012 20:00 22,1 C 54 % 0,0 l/m 2,9 km/h (1 Bft) N 360 12,3 C 25,9 C 3,2 km/h (1 Bft)
18.07.2012 20:05 21,9 C 55 % 0,0 l/m 3,1 km/h (1 Bft) O-NO 67 12,4 C 25,7 C 2,6 km/h (1 Bft)
18.07.2012 20:10 21,7 C 56 % 0,0 l/m 4,0 km/h (1 Bft) O-SO 112 12,5 C 25,2 C 5,3 km/h (1 Bft)
18.07.2012 20:15 21,6 C 56 % 0,0 l/m 4,5 km/h (1 Bft) SO 135 12,4 C 25,0 C 1,9 km/h (1 Bft)
18.07.2012 20:20 21,3 C 56 % 0,0 l/m 3,2 km/h (1 Bft) O 90 12,2 C 24,4 C 11,4 km/h (2 Bft)
18.07.2012 20:25 21,0 C 57 % 0,0 l/m 3,1 km/h (1 Bft) NO 45 12,1 C 24,0 C 1,8 km/h (1 Bft)
18.07.2012 20:30 20,7 C 56 % 0,0 l/m 2,4 km/h (1 Bft) S-SO 157 11,6 C 23,2 C 0,0 km/h (0 Bft)
18.07.2012 20:35 20,2 C 57 % 0,0 l/m 0,6 km/h (0 Bft) O-SO 112 11,4 C 22,6 C 2,4 km/h (1 Bft)
18.07.2012 20:40 20,1 C 58 % 0,0 l/m 0,2 km/h (0 Bft) O 90 11,6 C 22,0 C 0,0 km/h (0 Bft)
18.07.2012 20:45 19,7 C 58 % 0,0 l/m 0,3 km/h (0 Bft) N 360 11,2 C 21,5 C 4,2 km/h (1 Bft)
18.07.2012 20:50 19,3 C 59 % 0,0 l/m 0,5 km/h (0 Bft) N 360 11,1 C 20,7 C 1,6 km/h (1 Bft)
18.07.2012 20:55 19,3 C 59 % 0,0 l/m 0,3 km/h (0 Bft) O-NO 67 11,1 C 20,3 C 0,0 km/h (0 Bft)
18.07.2012 21:00 19,0 C 60 % 0,0 l/m 0,2 km/h (0 Bft) O 90 11,1 C 19,7 C 0,0 km/h (0 Bft)
18.07.2012 21:05 19,0 C 60 % 0,0 l/m 0,2 km/h (0 Bft) N 360 11,1 C 19,3 C 0,0 km/h (0 Bft)
18.07.2012 21:10 18,5 C 62 % 0,0 l/m 0,2 km/h (0 Bft) N-NO 22 11,1 C 18,9 C 1,6 km/h (1 Bft)
18.07.2012 21:15 18,2 C 62 % 0,0 l/m 0,3 km/h (0 Bft) O 90 10,8 C 18,6 C 2,9 km/h (1 Bft)
18.07.2012 21:20 18,3 C 63 % 0,0 l/m 0,3 km/h (0 Bft) N-NO 22 11,1 C 18,4 C 0,0 km/h (0 Bft)
18.07.2012 21:25 18,0 C 64 % 0,0 l/m 0,3 km/h (0 Bft) N-NO 22 11,1 C 18,2 C 1,8 km/h (1 Bft)
18.07.2012 21:30 18,1 C 64 % 0,0 l/m 0,2 km/h (0 Bft) NO 45 11,2 C 18,0 C 0,0 km/h (0 Bft)
18.07.2012 21:35 17,8 C 64 % 0,0 l/m 0,2 km/h (0 Bft) S-SO 157 10,9 C 17,9 C 0,0 km/h (0 Bft)
18.07.2012 21:40 17,3 C 65 % 0,0 l/m 0,0 km/h (0 Bft) NO 45 10,7 C 17,5 C 0,0 km/h (0 Bft)
18.07.2012 21:45 17,3 C 65 % 0,0 l/m 0,2 km/h (0 Bft) N 360 10,7 C 17,4 C 0,0 km/h (0 Bft)
18.07.2012 21:50 16,6 C 68 % 0,0 l/m 0,2 km/h (0 Bft) N-NO 22 10,7 C 17,1 C 0,0 km/h (0 Bft)
18.07.2012 21:55 16,2 C 69 % 0,0 l/m 0,0 km/h (0 Bft) NO 45 10,5 C 16,7 C 0,0 km/h (0 Bft)
18.07.2012 22:00 16,2 C 69 % 0,0 l/m 0,0 km/h (0 Bft) S 180 10,5 C 16,4 C 0,0 km/h (0 Bft)
18.07.2012 22:05 15,9 C 71 % 0,0 l/m 0,0 km/h (0 Bft) W 270 10,6 C 16,2 C 0,0 km/h (0 Bft)
18.07.2012 22:10 15,6 C 73 % 0,0 l/m 0,0 km/h (0 Bft) N 360 10,8 C 15,8 C 0,0 km/h (0 Bft)
18.07.2012 22:15 15,5 C 73 % 0,0 l/m 0,0 km/h (0 Bft) W 270 10,7 C 15,5 C 0,0 km/h (0 Bft)
18.07.2012 22:20 15,1 C 74 % 0,0 l/m 0,0 km/h (0 Bft) W-SW 247 10,5 C 15,2 C 0,0 km/h (0 Bft)
18.07.2012 22:25 15,0 C 74 % 0,0 l/m 0,0 km/h (0 Bft) S-SO 157 10,4 C 15,0 C 0,0 km/h (0 Bft)
18.07.2012 22:30 14,9 C 75 % 0,0 l/m 0,0 km/h (0 Bft) NW 315 10,5 C 14,7 C 0,0 km/h (0 Bft)
18.07.2012 22:35 14,8 C 75 % 0,0 l/m 0,0 km/h (0 Bft) SO 135 10,4 C 14,6 C 0,0 km/h (0 Bft)
18.07.2012 22:40 14,6 C 76 % 0,0 l/m 0,0 km/h (0 Bft) O-SO 112 10,4 C 14,5 C 0,0 km/h (0 Bft)
18.07.2012 22:45 14,4 C 76 % 0,0 l/m 0,0 km/h (0 Bft) W 270 10,2 C 14,4 C 0,0 km/h (0 Bft)
18.07.2012 22:50 14,3 C 78 % 0,0 l/m 0,0 km/h (0 Bft) S-SW 202 10,5 C 14,3 C 0,0 km/h (0 Bft)
18.07.2012 22:55 14,3 C 78 % 0,0 l/m 0,0 km/h (0 Bft) W-SW 247 10,5 C 14,3 C 0,0 km/h (0 Bft)
18.07.2012 23:00 14,3 C 78 % 0,0 l/m 0,0 km/h (0 Bft) S 180 10,5 C 14,4 C 0,0 km/h (0 Bft)
18.07.2012 23:05 14,3 C 79 % 0,0 l/m 0,0 km/h (0 Bft) N-NO 22 10,7 C 14,5 C 0,0 km/h (0 Bft)
18.07.2012 23:10 14,2 C 79 % 0,0 l/m 0,0 km/h (0 Bft) W 270 10,6 C 14,3 C 0,0 km/h (0 Bft)
18.07.2012 23:15 14,1 C 79 % 0,0 l/m 0,0 km/h (0 Bft) S-SO 157 10,5 C 14,2 C 0,0 km/h (0 Bft)
18.07.2012 23:20 14,0 C 78 % 0,0 l/m 0,0 km/h (0 Bft) W 270 10,2 C 13,9 C 0,0 km/h (0 Bft)
18.07.2012 23:25 14,1 C 78 % 0,0 l/m 0,0 km/h (0 Bft) S 180 10,3 C 13,9 C 0,0 km/h (0 Bft)
18.07.2012 23:30 14,1 C 79 % 0,0 l/m 0,2 km/h (0 Bft) S 180 10,5 C 13,8 C 0,0 km/h (0 Bft)
18.07.2012 23:35 14,0 C 79 % 0,0 l/m 0,2 km/h (0 Bft) O-NO 67 10,4 C 13,8 C 0,0 km/h (0 Bft)
18.07.2012 23:40 13,9 C 79 % 0,0 l/m 0,0 km/h (0 Bft) S 180 10,3 C 13,7 C 0,0 km/h (0 Bft)
18.07.2012 23:45 13,9 C 80 % 0,0 l/m 0,0 km/h (0 Bft) O-SO 112 10,5 C 13,6 C 0,0 km/h (0 Bft)
18.07.2012 23:50 13,7 C 81 % 0,0 l/m 0,0 km/h (0 Bft) N-NO 22 10,5 C 13,5 C 2,4 km/h (1 Bft)
18.07.2012 23:55 13,8 C 81 % 0,0 l/m 0,0 km/h (0 Bft) O-SO 112 10,6 C 13,7 C 0,0 km/h (0 Bft)
_ Min-Zeit 06:25 16:20 - 23:55 - - 06:25 06:25 23:55
Minimum _ 12,9 C 34 % - 0,0 km/h (0 Bft) - - 8,8 C 13,2 C 0,0 km/h (0 Bft)
_ Max-Zeit 15:20 23:55 23:55 16:35 - - 13:40 15:20 16:20
Maximum _ 28,2 C 81 % 0,0 l/m 13,2 km/h
S (3 Bft)
- - 13,5 C 28,8 C 29,1 km/h
S-SO (5 Bft)
Durchschnitt _ 20,4 C 57 % #0,0 l/m 4,3 km/h (1 Bft) O-SO - 11,0 C 21,5 C 5,8 km/h (2 Bft)